FENGYUN 1C DEB

Satellite information

Favourite Embed

Satellite Type and Status

DEBRISIN ORBIT

Key statistics

Satellite FENGYUN 1C DEB at a glance.

Uptime

9659

Days in orbit

Revolutions

≈ 14.3

Per day

Orbit

SSO

Sun Synchronous Orbit

Inclination

98.8

Latest

Satellite identification and parameters

Extended collection of information and parameters for FENGYUN 1C DEB.

Object identification

Identified? True

Debris? True

Object name: FENGYUN 1C DEB

International designator: 1999-025ABX

Object number (NORAD): 30360

Object ID (CCSDS): 30360

Country: PEOPLES REPUBLIC OF CHINA (PRC)

Current information (Y/N): Y

RCS size: SMALL

Orbital parameters

Period: 100.99 minutes

Inclination: 98.7689 deg

SMA: 7183.68 km

Apoapsis: 825.94 km

Periapsis: 785.149 km

RAAN: 1.2638 deg

Eccentricy: 0.00283913

Argument of periapsis: 303.188 deg

Mean anomaly: 186.4002 deg

Mean motion: 14.25877866 rev/day

Mean motion (dot): 0.00005575 rev/day2

B* drag term: 0.0023494085 1/REarth

Two-line elements (TLE)

Creation date: Oct. 19, 2025, 2:20 a.m.

Reference frame: TEME

Reference center: EARTH

Epoch: Oct. 18, 2025, 4:53 p.m. UTC

TLE line 0: 0 FENGYUN 1C DEB

TLE line 1: 1 30360U 99025ABX 25291.70362965 .00005575 00000-0 23494-2 0 9990

TLE line 2: 2 30360 98.7689 1.2638 0028391 303.1880 186.4002 14.25877866966407

Live tracking on map

Real-time ground track for satellite FENGYUN 1C DEB.

In-orbit conjunctions

A list of the most updated potential collisions computed for object FENGYUN 1C DEB.

Target Orbit TCA Probability of collision Miss distance Type
SL-12 R/B(AUX MOTOR) LEO 2025-09-18 06:26:17 0.000195375 598.0 (m) ROCKET BODY
METEOR 2-7 LEO 2025-06-30 03:21:40 0.0007123246 414.0 (m) PAYLOAD
CZ-6A DEB LEO 2025-02-23 23:14:27 0.0002413577 359.0 (m) DEBRIS

Associated space launch

Chinese polar orbiting meteorological satellite

FENGYUN 1C DEB was lifted into orbit during the mission ‘Long March 4B | Feng Yun 1C’, on board a Long March 4B space rocket.

The launch took place on May 10, 1999, 1:33 a.m. from Launch Complex 7.

For more information about the launch, click the button.

Launch to space Long March 4B | Feng Yun 1C
Long March 4B | Feng Yun 1C

Agency: N/A

Status: Launch Successful

Launch date: May 10, 1999, 1:33 a.m. UTC

Rocket: Long March 4B

Launch pad: Launch Complex 7

Location: Taiyuan Satellite Launch Center, People's Republic of China

...

Latest news about this satellite

There are no fresh news available about this satellite. Check back as we update our databases every day.


Newsletter sign-up

Weekly statistics, charts and insights to help you stay on top of the space industry.